| time (UTC) | temp F | wind direction | speed knots | gust knots | rain 1hr in | rain 24hr in | rain mn in | humidity % | barometer mb |
| 20260507015105 | 61 | 297 | 1.7 | 2.6 | 0.00 | 0.30 | 0.30 | 91 | 1015.2 |
| 20260507014033 | 61 | 289 | 0.9 | 1.7 | 0.00 | 0.30 | 0.30 | 90 | 1015.2 |
| 20260507013048 | 62 | 332 | 1.7 | 2.6 | 0.00 | 0.30 | 0.30 | 89 | 1014.8 |
| 20260507012046 | 62 | 316 | 1.7 | 3.5 | 0.00 | 0.30 | 0.30 | 89 | 1014.7 |
| 20260507010053 | 62 | 332 | 1.7 | 2.6 | 0.00 | 0.30 | 0.30 | 88 | 1014.6 |
| 20260507005028 | 62 | 352 | 1.7 | 2.6 | 0.00 | 0.30 | 0.30 | 87 | 1014.6 |
| 20260507004030 | 62 | 343 | 2.6 | 3.5 | 0.00 | 0.30 | 0.30 | 87 | 1014.5 |
| 20260507003027 | 62 | 348 | 2.6 | 4.3 | 0.00 | 0.30 | 0.30 | 87 | 1013.8 |
| 20260507002028 | 62 | 299 | 2.6 | 4.3 | 0.00 | 0.30 | 0.30 | 87 | 1014.5 |
| 20260507001028 | 62 | 322 | 2.6 | 4.3 | 0.00 | 0.30 | 0.30 | 86 | 1013.7 |
| 20260507000029 | 63 | 4 | 2.6 | 5.2 | 0.00 | 0.30 | 0.30 | 86 | 1013.8 |
| 20260506235024 | 63 | 328 | 3.5 | 5.2 | 0.00 | 0.30 | 0.30 | 86 | 1013.9 |
| 20260506234041 | 62 | 346 | 4.3 | 6.1 | 0.00 | 0.30 | 0.30 | 86 | 1014.0 |
| 20260506233101 | 62 | 359 | 3.5 | 6.1 | 0.00 | 0.30 | 0.30 | 87 | 1014.3 |
| 20260506231029 | 62 | 25 | 4.3 | 5.2 | 0.00 | 0.30 | 0.30 | 87 | 1013.9 |
| 20260506230047 | 62 | 331 | 4.3 | 6.1 | 0.00 | 0.30 | 0.30 | 87 | 1013.9 |
| 20260506224016 | 62 | 318 | 4.3 | 5.2 | 0.00 | 0.30 | 0.30 | 87 | 1013.9 |
| 20260506223132 | 62 | 321 | 5.2 | 7.8 | 0.00 | 0.30 | 0.30 | 87 | 1013.8 |
| 20260506222045 | 61 | 311 | 5.2 | 7.8 | 0.00 | 0.30 | 0.30 | 88 | 1013.6 |
| 20260506221042 | 61 | 287 | 6.1 | 8.7 | 0.00 | 0.30 | 0.30 | 88 | 1013.5 |
| 20260506220019 | 61 | 307 | 4.3 | 6.1 | 0.00 | 0.30 | 0.30 | 88 | 1013.6 |
| 20260506215112 | 61 | 337 | 4.3 | 7.8 | 0.00 | 0.30 | 0.30 | 89 | 1013.9 |
| 20260506214128 | 61 | 301 | 7.0 | 10.4 | 0.00 | 0.30 | 0.30 | 88 | 1014.1 |
| 20260506213042 | 61 | 328 | 5.2 | 7.0 | 0.00 | 0.30 | 0.30 | 88 | 1013.8 |
| 20260506212017 | 62 | 299 | 6.1 | 9.6 | 0.00 | 0.30 | 0.30 | 87 | 1013.7 |
| 20260506211025 | 62 | 312 | 5.2 | 8.7 | 0.00 | 0.30 | 0.30 | 87 | 1013.8 |
| 20260506210106 | 62 | 300 | 7.8 | 9.6 | 0.00 | 0.30 | 0.30 | 88 | 1014.0 |
| 20260506205041 | 62 | 308 | 6.1 | 7.8 | 0.00 | 0.30 | 0.30 | 88 | 1014.0 |
| 20260506204038 | 61 | 315 | 5.2 | 7.8 | 0.00 | 0.30 | 0.30 | 90 | 1014.1 |
| 20260506202027 | 62 | 313 | 7.0 | 8.7 | 0.00 | 0.30 | 0.30 | 90 | 1014.0 |
| 20260506201023 | 61 | 315 | 5.2 | 8.7 | 0.00 | 0.30 | 0.30 | 91 | 1014.3 |
| 20260506200058 | 61 | 295 | 7.0 | 10.4 | 0.00 | 0.30 | 0.30 | 90 | 1014.1 |
| 20260506195038 | 62 | 297 | 8.7 | 9.6 | 0.00 | 0.30 | 0.30 | 90 | 1014.0 |
| 20260506194040 | 61 | 303 | 8.7 | 11.3 | 0.00 | 0.30 | 0.30 | 90 | 1014.0 |
| 20260506193106 | 62 | 305 | 8.7 | 12.2 | 0.00 | 0.30 | 0.30 | 90 | 1014.0 |
| 20260506192022 | 63 | 292 | 7.0 | 8.7 | 0.00 | 0.30 | 0.30 | 90 | 1014.0 |
| 20260506191037 | 63 | 300 | 7.0 | 8.7 | 0.00 | 0.30 | 0.30 | 90 | 1013.9 |
| 20260506190023 | 63 | 333 | 6.1 | 9.6 | 0.00 | 0.30 | 0.30 | 91 | 1014.0 |
| 20260506185144 | 63 | 310 | 7.8 | 10.4 | 0.00 | 0.30 | 0.30 | 91 | 1014.1 |
| 20260506184021 | 63 | 292 | 8.7 | 10.4 | 0.00 | 0.30 | 0.30 | 91 | 1014.1 |
| 20260506183018 | 63 | 309 | 10.4 | 13.9 | 0.00 | 0.30 | 0.30 | 90 | 1014.1 |
| 20260506182148 | 65 | 299 | 9.6 | 13.9 | 0.00 | 0.30 | 0.30 | 89 | 1013.8 |
| 20260506181047 | 68 | 292 | 7.8 | 13.0 | 0.00 | 0.30 | 0.30 | 87 | 1013.6 |
| 20260506180022 | 72 | 324 | 4.3 | 6.1 | 0.00 | 0.30 | 0.30 | 83 | 1013.5 |
| 20260506175043 | 73 | 317 | 3.5 | 5.2 | 0.00 | 0.30 | 0.30 | 82 | 1013.5 |
| 20260506174104 | 73 | 291 | 3.5 | 5.2 | 0.00 | 0.30 | 0.30 | 80 | 1013.5 |
| 20260506173109 | 74 | 337 | 2.6 | 4.3 | 0.00 | 0.30 | 0.30 | 80 | 1013.4 |
| 20260506172125 | 72 | 344 | 2.6 | 5.2 | 0.00 | 0.30 | 0.30 | 82 | 1013.0 |
| 20260506171022 | 71 | 104 | 3.5 | 5.2 | 0.00 | 0.30 | 0.30 | 83 | 1012.8 |
| 20260506170037 | 72 | 100 | 3.5 | 5.2 | 0.00 | 0.30 | 0.30 | 83 | 1012.8 |
| 20260506165111 | 70 | 125 | 3.5 | 5.2 | 0.07 | 0.30 | 0.30 | 85 | 1012.8 |
| 20260506164152 | 69 | 113 | 5.2 | 7.0 | 0.30 | 0.30 | 0.30 | 92 | 1013.0 |
| 20260506163046 | 67 | 57 | 2.6 | 4.3 | 0.30 | 0.30 | 0.30 | 99 | 1013.3 |
| 20260506162040 | 65 | 68 | 2.6 | 4.3 | 0.30 | 0.30 | 0.30 | 99 | 1013.5 |
| 20260506161021 | 64 | 16 | 3.5 | 5.2 | 0.30 | 0.30 | 0.30 | 99 | 1013.9 |
| 20260506160020 | 63 | 24 | 1.7 | 3.5 | 0.30 | 0.30 | 0.30 | 99 | 1015.0 |
| 20260506155031 | 62 | 280 | 2.6 | 4.3 | 0.23 | 0.23 | 0.23 | 99 | 1014.9 |
| 20260506154045 | 63 | 286 | 5.2 | 7.8 | 0.00 | 0.00 | 0.00 | 99 | 1014.3 |
| 20260506153045 | 64 | 14 | 7.0 | 8.7 | 0.00 | 0.00 | 0.00 | 98 | 1013.3 |
| 20260506152031 | 65 | 352 | 5.2 | 7.0 | 0.00 | 0.00 | 0.00 | 98 | 1013.4 |
| 20260506151128 | 65 | 14 | 6.1 | 7.8 | 0.00 | 0.00 | 0.00 | 98 | 1013.2 |
| 20260506150027 | 66 | 350 | 8.7 | 13.0 | 0.00 | 0.00 | 0.00 | 98 | 1013.2 |
| 20260506145021 | 70 | 306 | 7.8 | 9.6 | 0.00 | 0.00 | 0.00 | 98 | 1012.8 |
| 20260506144034 | 75 | 310 | 0.9 | 2.6 | 0.00 | 0.00 | 0.00 | 99 | 1012.1 |
| 20260506143027 | 75 | 116 | 0.9 | 1.7 | 0.00 | 0.00 | 0.00 | 99 | 1011.6 |
| 20260506142027 | 75 | 153 | 2.6 | 3.5 | 0.00 | 0.00 | 0.00 | 99 | 1010.9 |
| 20260506141043 | 75 | 122 | 2.6 | 3.5 | 0.00 | 0.00 | 0.00 | 99 | 1010.9 |
| 20260506140047 | 75 | 106 | 1.7 | 2.6 | 0.00 | 0.00 | 0.00 | 99 | 1011.2 |
| 20260506135042 | 74 | 119 | 2.6 | 3.5 | 0.00 | 0.00 | 0.00 | 99 | 1011.1 |
| 20260506134100 | 74 | 111 | 0.9 | 2.6 | 0.00 | 0.00 | 0.00 | 99 | 1010.8 |
| 20260506133034 | 74 | 109 | 2.6 | 3.5 | 0.00 | 0.00 | 0.00 | 99 | 1010.8 |
| 20260506132027 | 74 | 120 | 0.9 | 2.6 | 0.00 | 0.00 | 0.00 | 99 | 1010.8 |
| 20260506131043 | 74 | 113 | 0.0 | 1.7 | 0.00 | 0.00 | 0.00 | 99 | 1010.5 |
| 20260506130133 | 73 | 113 | 0.9 | 1.7 | 0.00 | 0.00 | 0.00 | 99 | 1010.4 |
| 20260506125051 | 73 | 149 | 1.7 | 1.7 | 0.00 | 0.00 | 0.00 | 99 | 1010.3 |
| 20260506124110 | 73 | 136 | 1.7 | 2.6 | 0.00 | 0.00 | 0.00 | 99 | 1010.3 |
| 20260506123051 | 73 | 125 | 1.7 | 2.6 | 0.00 | 0.00 | 0.00 | 99 | 1010.3 |
| 20260506122104 | 73 | 114 | 0.9 | 1.7 | 0.00 | 0.00 | 0.00 | 99 | 1010.2 |
| 20260506121029 | 73 | 94 | 0.0 | 1.7 | 0.00 | 0.00 | 0.00 | 99 | 1010.2 |
| 20260506120049 | 73 | 113 | 1.7 | 2.6 | 0.00 | 0.00 | 0.00 | 99 | 1010.2 |
| 20260506115024 | 73 | 129 | 1.7 | 2.6 | 0.00 | 0.00 | 0.00 | 99 | 1010.2 |
| 20260506114139 | 73 | 129 | 1.7 | 2.6 | 0.00 | 0.00 | 0.00 | 99 | 1010.1 |
| 20260506113025 | 73 | 136 | 1.7 | 2.6 | 0.00 | 0.00 | 0.00 | 99 | 1010.1 |
| 20260506112019 | 73 | 135 | 0.0 | 0.9 | 0.00 | 0.00 | 0.00 | 99 | 1010.3 |
| 20260506111058 | 73 | 134 | 1.7 | 1.7 | 0.00 | 0.00 | 0.00 | 99 | 1010.4 |
| 20260506110038 | 73 | 180 | 0.9 | 1.7 | 0.00 | 0.00 | 0.00 | 99 | 1010.3 |
| 20260506105016 | 73 | 150 | 0.9 | 1.7 | 0.00 | 0.00 | 0.00 | 99 | 1010.2 |
| 20260506104024 | 73 | 142 | 0.9 | 1.7 | 0.00 | 0.00 | 0.00 | 99 | 1010.1 |
| 20260506103020 | 74 | 0.0 | 0.0 | 0.00 | 0.00 | 0.00 | 99 | 1010.1 | |
| 20260506102019 | 74 | 144 | 1.7 | 2.6 | 0.00 | 0.00 | 0.00 | 97 | 1009.9 |
| 20260506101114 | 74 | 140 | 1.7 | 3.5 | 0.00 | 0.00 | 0.00 | 92 | 1009.8 |
| 20260506100027 | 74 | 160 | 1.7 | 2.6 | 0.00 | 0.00 | 0.00 | 89 | 1009.7 |
| 20260506095141 | 75 | 166 | 0.9 | 1.7 | 0.00 | 0.00 | 0.00 | 89 | 1009.7 |
| 20260506094033 | 75 | 181 | 0.9 | 1.7 | 0.00 | 0.00 | 0.00 | 89 | 1009.7 |
| 20260506093033 | 75 | 190 | 2.6 | 4.3 | 0.00 | 0.00 | 0.00 | 89 | 1009.4 |
| 20260506092111 | 75 | 158 | 1.7 | 2.6 | 0.00 | 0.00 | 0.00 | 89 | 1009.2 |
| 20260506091111 | 75 | 155 | 1.7 | 2.6 | 0.00 | 0.00 | 0.00 | 88 | 1009.2 |
| 20260506090044 | 75 | 152 | 1.7 | 3.5 | 0.00 | 0.00 | 0.00 | 88 | 1009.0 |
| 20260506085100 | 75 | 284 | 1.7 | 2.6 | 0.00 | 0.00 | 0.00 | 87 | 1009.0 |
| 20260506084121 | 75 | 171 | 1.7 | 3.5 | 0.00 | 0.00 | 0.00 | 87 | 1009.0 |
| 20260506083134 | 75 | 117 | 2.6 | 4.3 | 0.00 | 0.00 | 0.00 | 87 | 1008.8 |
| 20260506082047 | 75 | 166 | 3.5 | 6.1 | 0.00 | 0.00 | 0.00 | 86 | 1009.0 |
| 20260506081021 | 75 | 170 | 2.6 | 5.2 | 0.00 | 0.00 | 0.00 | 86 | 1009.2 |
| 20260506073019 | 75 | 148 | 4.3 | 7.8 | 0.00 | 0.00 | 0.00 | 85 | 1009.3 |
| 20260506072104 | 75 | 149 | 4.3 | 7.0 | 0.00 | 0.00 | 0.00 | 85 | 1009.3 |
| 20260506071023 | 75 | 152 | 4.3 | 6.1 | 0.00 | 0.00 | 0.00 | 85 | 1009.3 |
| 20260506062034 | 75 | 157 | 4.3 | 6.1 | 0.00 | 0.00 | 0.00 | 86 | 1009.0 |
| 20260506061048 | 75 | 155 | 5.2 | 6.1 | 0.00 | 0.00 | 0.00 | 86 | 1009.0 |
| 20260506051039 | 75 | 150 | 6.1 | 8.7 | 0.00 | 0.00 | 0.00 | 84 | 1009.2 |
| 20260506045053 | 76 | 177 | 3.5 | 7.0 | 0.00 | 0.00 | 0.00 | 82 | 1009.3 |
| 20260506044048 | 76 | 136 | 3.5 | 5.2 | 0.00 | 0.00 | 0.00 | 82 | 1009.4 |
| 20260506042019 | 76 | 124 | 2.6 | 5.2 | 0.00 | 0.00 | 0.00 | 80 | 1009.2 |
| 20260506041054 | 76 | 147 | 2.6 | 4.3 | 0.00 | 0.00 | 0.00 | 79 | 1009.2 |
| 20260506040048 | 76 | 173 | 0.9 | 2.6 | 0.00 | 0.00 | 0.00 | 78 | 1009.1 |
| 20260506035104 | 77 | 96 | 2.6 | 3.5 | 0.00 | 0.00 | 0.00 | 77 | 1008.9 |
| 20260506034019 | 77 | 143 | 3.5 | 4.3 | 0.00 | 0.00 | 0.00 | 76 | 1008.8 |
| 20260506033021 | 77 | 144 | 4.3 | 7.8 | 0.00 | 0.00 | 0.00 | 75 | 1008.5 |
| 20260506032027 | 77 | 156 | 5.2 | 7.8 | 0.00 | 0.00 | 0.00 | 74 | 1008.5 |
| 20260506031023 | 78 | 166 | 5.2 | 9.6 | 0.00 | 0.00 | 0.00 | 73 | 1008.3 |
| 20260506030019 | 78 | 145 | 3.5 | 6.1 | 0.00 | 0.00 | 0.00 | 73 | 1008.2 |
| 20260506025026 | 78 | 155 | 4.3 | 6.1 | 0.00 | 0.00 | 0.00 | 73 | 1008.1 |
| 20260506024027 | 78 | 147 | 5.2 | 7.8 | 0.00 | 0.00 | 0.00 | 72 | 1008.0 |
| 20260506023024 | 78 | 132 | 4.3 | 5.2 | 0.00 | 0.00 | 0.00 | 72 | 1007.8 |
| 20260506022018 | 78 | 131 | 3.5 | 5.2 | 0.00 | 0.00 | 0.00 | 71 | 1007.6 |
| 20260506021149 | 78 | 136 | 4.3 | 6.1 | 0.00 | 0.00 | 0.00 | 70 | 1007.4 |
| 20260506020047 | 79 | 128 | 3.5 | 4.3 | 0.00 | 0.00 | 0.00 | 70 | 1007.3 |